Regional Weather Roundup
Issued by NWS

Home | Current Version | Previous Version | Text Only | Print | Product List | Glossary Off
Versions: 1 2 3 4 5 6 7 8 9 10 11 12 13 14 15 16 17 18 19 20 21 22 23 24 25 26 27 28 29 30 31 32 33 34 35 36 37 38 39 40 41 42 43 44 45 46 47 48 49 50

000
ASUS43 KLMK 220202
RWRKY
KENTUCKY REGIONAL WEATHER ROUNDUP
NATIONAL WEATHER SERVICE LOUISVILLE KY
900 PM EST WED FEB 21 2018

NOTE "FAIR" INDICATES FEW OR NO CLOUDS BELOW 12,000 FEET
WITH NO SIGNIFICANT WEATHER AND/OR OBSTRUCTIONS TO VISIBILITY.

KYZ001>023-026-027-061>063-070>075-220300-
WESTERN AND SOUTH CENTRAL KENTUCKY

CITY           SKY/WX    TMP DP  RH WIND       PRES   REMARKS
PADUCAH        RAIN      40  37  89 N10       30.40R WCI  33
HENDERSON      LGT RAIN  42  41  96 NE7       30.42F
OWENSBORO      LGT RAIN  44  43  96 E8        30.40F
HOPKINSVILLE   CLOUDY    43  43  99 NE10      30.35F
BOWLING GREEN  CLOUDY    48  47  96 N6        30.38F
GLASGOW        NOT AVBL
$$

KYZ024-025-028>034-038-045-046-053-220300-
NORTH CENTRAL KENTUCKY

CITY           SKY/WX    TMP DP  RH WIND       PRES   REMARKS
LOUISVILLE/SDF LGT RAIN  46  44  93 N10       30.46R
LOUISVILLE/LOU RAIN      46  46 100 NW6       30.47R FOG
FORT KNOX      LGT RAIN  45  45  99 N8        30.44F
$$

KYZ035>037-039>044-047>052-055>060-089>105-220300-
NORTHEAST KENTUCKY

CITY           SKY/WX    TMP DP  RH WIND       PRES   REMARKS
LEXINGTON      CLOUDY    49  45  86 N9        30.42R
COVINGTON      LGT RAIN  42  42 100 N15       30.46F
FRANKFORT      LGT RAIN  48  44  86 N8        30.42R
$$

KYZ054-064>069-076>088-106>120-220300-
SOUTHEAST KENTUCKY

CITY           SKY/WX    TMP DP  RH WIND       PRES   REMARKS
JACKSON        CLOUDY    58  55  90 VRB5      30.38R
LONDON         CLOUDY    59  56  89 NE10      30.36F
SOMERSET       LGT RAIN  55  55 100 MISG      30.38S
MIDDLESBORO    FAIR      61  60  97 CALM      30.33S
MONTICELLO     NOT AVBL
$$





USA.gov is the U.S. government's official web portal to all federal, state and local government web resources and services.